COSMOS 886 DEB, 9650

Orbit data source: Space-Track

COSMOS 886 DEB, 9650 is space debris in LEO originally from a launch on Mon, 27 Dec 1976 UTC launched from the Tyuratam Missile And Space Complex (TTMTR). Debris objects in space refer to the collection of defunct objects orbiting the Earth. Examples of debris include non-operational satellites, rocket bodies, and fragments generated from explosions, collisions, or faulty payload assembly.

Loading next visibility...
Identifier
9650, 1976-126G
Orbit
LEO
Country
Flag of CISCIS
Related business
Manufacturer
Unknown
Mission
Spacecraft
Bus & Motor
Unknown
Mass
Unknown
Launch date (UTC)
1976-12-27 (49 years ago)
Launch vehicle
Unknown
Launch site
Tyuratam Missile And Space Complex (TTMTR)
Object type
Payload
Rocket body
Debris
Shape & HBR
Unknown shape, 0.2 m
Radar Cross Section
Medium (>0.1 m² and <1 m²)

Expand to show TLE details & history
Last TLE update: 18 hours ago

TLE from 18 hours ago
0 COSMOS 886 DEB
1 09650U 76126G   26174.96399353  .00001924  00000-0  46618-3 0  9993
2 09650  65.8120  48.3240 0856347  25.3708 338.6924 13.32762397355868
Epoch: 2026-06-23T23:08Z
TLE epoch observation values (Epoch: 2026-06-23T23:08:09.040Z)
Latitude
-0.00011°
Longitude
149.15827°
Altitude
546.968 km
Speed
7.882 km/s
True Right ascension
03h 13m 17s
True Declination
0° 00' 00"
Sunlit
Object was in daylight at epoch
Visualization orbit readout
Latitude
Unknown
Longitude
Unknown
Altitude
Unknown
Speed
Unknown
Apparent Right ascension
Unknown
Apparent Declination
Unknown
Sunlit
N/A
Visualization observer readout
Local Sidereal Time
04:42:54
Azimuth
Unknown
Elevation
Unknown
Doppler factor
Unknown
Orbital elements
Apogee altitude
1,778.272 km
Perigee altitude
491.52 km
Semi-major axis
7,513.033 km
Eccentricity
0.08563
Inclination
65.812°
RAAN
48.324°
Arg. of periapsis
25.3708°
True anomaly
334.73678°
Mean anomaly
338.6924°
Eccentric anomaly
336.75606°
Mean motion
3.33288 °/min
Orbital period
108.01 mins
BSTAR
0.00046618
Loading maneuver chart data...
Computing Atmospheric mass density...
Loading historical data...
Loading historical data...
Loading historical data...
Loading historical data...
Loading historical data...
Loading historical data...
Loading historical data...

Documentation

Showing up to 5 results
|